Regional Weather Roundup
Issued by NWS

Home | Current Version | Previous Version | Text Only | Print | Product List | Glossary On
Versions: 1 2 3 4 5 6 7 8 9 10 11 12 13 14 15 16 17 18 19 20 21 22 23 24 25 26 27 28 29 30 31 32 33 34 35 36 37 38 39 40 41 42 43 44 45 46 47 48 49 50
000
ASUS44 KLIX 201014
RWRLA
LOUISIANA WEATHER ROUNDUP
NATIONAL WEATHER SERVICE NEW ORLEANS LA
500 AM CDT SUN AUG 20 2017

NOTE: "FAIR" INDICATES FEW OR NO CLOUDS BELOW 12,000 FEET WITH NO
      SIGNIFICANT WEATHER AND/OR OBSTRUCTIONS TO VISIBILITY.
      SKY/WX - SKY CONDITION AND SIGNIFICANT WEATHER.
      TMP - AIR TEMPERATURE.    DP   - DEWPOINT TEMPERATURE.
      RH  - RELATIVE HUMIDITY.  PRES - PRESSURE.
      HX  - HEAT INDEX.         WCI  - WIND CHILL INDEX.

*  THESE STATIONS ARE NOT NWS OR FAA STATIONS AND ARE NOT UNDER
   NWS QUALITY CONTROL.

LAZ040-048-061>063-065-066-069-201100-
SOUTHEAST LOUISIANA

CITY           SKY/WX    TMP DP  RH WIND       PRES   REMARKS
N.O. INTL ARPT MOCLDY    78  77  96 CALM      29.98R
N.O. LAKEFRONT PTCLDY    80  77  90 E7        30.00R
N.O. DOWNTOWN* FAIR      80  77  90 E5        30.00R
RESERVE*       FAIR      77  75  93 CALM      29.99R FOG
SLIDELL        CLEAR     72  71  97 CALM      29.99R
BATON ROUGE    CLEAR     74  72  93 CALM      29.99R
BOOTHVILLE     CLEAR     84  79  85 CALM      29.99R HX  96
BELLE CHASSE   NOT AVBL
BOGALUSA*      FAIR      73  70  90 CALM      30.02R
GALLIANO*      SUNNY     75  72  92 CALM      29.99R FOG
NEW ROADS*     CLOUDY    73  73  99 CALM      30.00R FOG
GONZALES*      FAIR      74  74  99 CALM      29.99R
HAMMOND*       PTCLDY    72  70  94 CALM      30.00R
HOUMA*         NOT AVBL
PORT FOURCHON* MOSUNNY   82  77  83 NE6       29.99R

$$

LAZ041-044-053-054-201100-
SOUTHWEST LOUISIANA

CITY           SKY/WX    TMP DP  RH WIND       PRES   REMARKS
LAKE CHARLES   CLEAR     77  75  93 E3        29.98S
LAFAYETTE      CLEAR     76  74  93 N3        29.98S
PATTERSON      NOT AVBL
SALT POINT       N/A     77  75  93 CALM      29.97R
NEW IBERIA     CLEAR     73  71  93 SE6       30.00R
CHENAULT AIRPK CLEAR     75  74  97 CALM      29.98F

$$

LAZ027-028-201100-
CENTRAL LOUISIANA

CITY           SKY/WX    TMP DP  RH WIND       PRES   REMARKS
FORT POLK      CLEAR     77  73  88 CALM      29.98S
ALEXANDRIA INT CLEAR     73  73 100 CALM      29.97S
ALEXANDRIA     CLEAR     72  72 100 CALM      29.99S

$$

LAZ001-002-201100-
NORTHWEST LOUISIANA

CITY           SKY/WX    TMP DP  RH WIND       PRES   REMARKS
SHREVEPORT     PTCLDY    78  77  96 S5        29.96F
BARKSDALE AFB  CLEAR     76  76 100 SE6       29.97S
DTN SHREVEPORT CLEAR     81  76  84 SE3       29.97S

$$

LAZ014-016-201100-
NORTHEAST LOUISIANA

CITY           SKY/WX    TMP DP  RH WIND       PRES   REMARKS
MONROE         CLEAR     76  72  87 S5        29.99S
TALLULAH       CLEAR     71  70  96 CALM      30.00R FOG

$$




USA.gov is the U.S. government's official web portal to all federal, state and local government web resources and services.